Home   Weather   Saint-Denis   Past weeks

Flag for France Past Weather in Saint-Denis, Île-de-France, France — Yesterday and Last 2 Weeks

Now
52 °F

Mostly cloudy.


Feels Like: 48 °F
Forecast: 45 / 53 °F
Wind: 12 mph from West

Location: Paris Le Bourget Airport

Current Time: Feb 22, 2017 at 7:11:14 am

Latest Report: Feb 22, 2017 at 6:30 am


Visibility: N/A

Pressure: 30.04 "Hg

Humidity: 72%

Dew Point: 43 °F

Location of Saint-DenisLocation

Past Weather in Saint-Denis — Graph

°F

Saint-Denis Temperature Yesterday

Maximum temperature yesterday: 55 °F (at 2:30 pm)
Minimum temperature yesterday: 50 °F (at 8:00 am)
Average temperature yesterday: 53 °F

High & Low Weather Summary for the Past Weeks

 TemperatureHumidityPressure
High63 °F (Feb 15, 2:00 pm)100% (Feb 7, 12:00 pm)30.48 "Hg (Feb 7, 12:00 pm)
Low28 °F (Feb 19, 5:00 am)52% (Feb 15, 2:00 pm)29.95 "Hg (Feb 7, 6:00 am)
Average43 °F81%30.22 "Hg
* Reported Feb 7 6:00 am — Feb 22 6:00 am, Saint-Denis, Weather by CustomWeather, © 2017

Note: Actual official high and low records may vary slightly from our data, if they occured in-between our weather recording intervals... More about our weather records

Advertising

Saint-Denis Weather History for the Previous 24 Hours

Scroll right to see more
 ConditionsComfort  
Time TempWeatherWind HumidityBarometerVisibility
6:00 am
Wed, Feb 22
52 °FOvercast.13 mph72%30.04 "HgN/A
5:30 am52 °FOvercast.13 mph72%30.04 "HgN/A
5:00 am52 °FOvercast.13 mph72%30.04 "HgN/A
4:30 am52 °FMostly cloudy.13 mph72%30.04 "HgN/A
4:00 am52 °FMostly cloudy.13 mph77%30.04 "HgN/A
3:30 am52 °FMostly cloudy.12 mph77%30.07 "HgN/A
3:00 am54 °FMostly cloudy.16 mph72%30.07 "HgN/A
2:30 am52 °FMostly cloudy.12 mph82%30.07 "HgN/A
2:00 am54 °FOvercast.12 mph77%30.07 "HgN/A
1:30 am54 °FOvercast.12 mph77%30.07 "HgN/A
1:00 am54 °FMostly cloudy.10 mph72%30.09 "HgN/A
12:30 am54 °FOvercast.12 mph72%30.09 "HgN/A
12:00 am54 °FOvercast.12 mph72%30.09 "HgN/A
11:30 pm
Tue, Feb 21
54 °FOvercast.12 mph72%30.09 "HgN/A
11:00 pm54 °FOvercast.12 mph77%30.09 "HgN/A
10:30 pm54 °FMostly cloudy.13 mph77%30.12 "HgN/A
10:00 pm54 °FMostly cloudy.12 mph77%30.09 "HgN/A
9:30 pm54 °FMostly cloudy.12 mph77%30.12 "HgN/A
9:00 pm54 °FOvercast.13 mph77%30.12 "HgN/A
8:30 pm54 °FMostly cloudy.12 mph77%30.12 "HgN/A
8:00 pm54 °FMostly cloudy.10 mph82%30.12 "HgN/A
7:30 pm54 °FOvercast.9 mph82%30.12 "HgN/A
7:00 pm54 °FMostly cloudy.12 mph82%30.12 "HgN/A
6:30 pm54 °FMostly cloudy.12 mph82%30.12 "HgN/A
6:00 pm54 °FMostly cloudy.13 mph82%30.12 "HgN/A
5:30 pm54 °FPartly sunny.12 mph82%30.12 "HgN/A
5:00 pm55 °FOvercast.12 mph77%30.12 "HgN/A
4:30 pm55 °FMostly cloudy.12 mph77%30.12 "HgN/A
4:00 pm55 °FOvercast.12 mph77%30.12 "HgN/A
3:30 pm55 °FOvercast.12 mph77%30.12 "HgN/A
3:00 pm55 °FOvercast.12 mph77%30.12 "HgN/A
2:30 pm55 °FOvercast.12 mph77%30.12 "HgN/A
2:00 pm54 °FOvercast.13 mph82%30.15 "HgN/A
1:30 pm54 °FOvercast.13 mph82%30.15 "HgN/A
1:00 pm54 °FOvercast.12 mph82%30.15 "HgN/A
12:30 pm52 °FOvercast.14 mph82%30.15 "HgN/A
12:00 pm52 °FOvercast.14 mph82%30.18 "HgN/A
11:30 am52 °FOvercast.13 mph82%30.18 "HgN/A
11:00 am52 °FOvercast.14 mph77%30.15 "HgN/A
10:30 am52 °FOvercast.14 mph77%30.15 "HgN/A
10:00 am52 °FOvercast.16 mph77%30.18 "HgN/A
9:30 am50 °FMostly cloudy.14 mph82%30.15 "HgN/A
9:00 am50 °FOvercast.12 mph88%30.15 "HgN/A
8:30 am50 °FMostly cloudy.9 mph88%30.15 "HgN/A
8:00 am50 °FMostly cloudy.10 mph88%30.15 "HgN/A
7:30 am52 °FOvercast.12 mph82%30.15 "HgN/A
7:00 am52 °FLow clouds.8 mph88%30.15 "HgN/A
Weather by CustomWeather, © 2017

See weather overviewHow to use our weather pages